www.pogodaiklimat.ru

Погода и климат >> Архив погоды >> Россия >> Еврейская автономная область >> Ленинское


ПОГОДА в Ленинское

  • Прогноз погоды в Ленинское
  • Монитор погоды в Ленинское

АРХИВ ПОГОДЫ в Ленинское

Время (UTC), дата Ветер
(напр.,м/с)
 
Видим.   Явления Облачность Т
(С)
Тd
(С)
f
(%)
Тe
(С)
Тes
(С)
Комфортность P
(гПа)
Po
(гПа)
Тmin
(С)
Tmax
(С)
R
(мм)
R24
(мм)
S
(см)
06 16.08 СВ 6-12
{13}
10 км слаб. ливневой дождь 10/9 600 м
[Cb cap Ci sp]
+16.8 +16.3 97 +16 +16 994.7 988.3
09 16.08 СВ 5
{14}
2000 м ливневой дождь 10/10 600 м
[Cb cap]
+16.7 +16.3 97 +16 +16 994.0 987.7 +17.1 25
12 16.08 СВ 5-11
{13}
1000 м ливневой дождь 10/10 600 м
[Cb cap]
+16.2 +15.9 98 +15 +15 994.1 987.7
15 16.08 СВ 5
{12}
2000 м ливневой дождь 10/10 600 м
[Cb cap]
+16.1 +15.7 97 +15 +15 993.4 987.1
18 16.08 СВ 5
{11}
4000 м слаб. ливневой дождь 10/10 600 м
[Cb cap]
+15.7 +15.4 98 +14 +14 993.5 987.1
21 16.08 СВ 5-11
{12}
2000 м ливневой дождь 10/10 600 м
[Cb cap]
+14.9 +14.6 98 +13 +13 993.9 987.4 +14.9 38
00 17.08 В 4
{11}
4000 м слаб. ливневой дождь 10/10 600 м
[Cb cap]
+15.7 +15.3 97 +15 +15 994.8 988.4 +14.9
03 17.08 СВ 4 10 км слаб. ливневой дождь 10/10 600 м
[Cb cap]
+16.2 +15.7 97 +15 +15 995.4 989.0
06 17.08 СВ 5-10
{10}
10 км в посл. час ливневой дождь 10/10 600 м
[Cb cap]
+16.8 +15.8 94 +16 +16 995.4 989.0
09 17.08 СВ 5-11
{12}
10 км слаб. ливневой дождь 10/10 600 м
[Cb cap]
+16.1 +15.6 97 +15 +15 995.7 989.3 +17.0 10
12 17.08 СВ 6-13
{14}
1000 м ливневой дождь 10/10 600 м
[Cb cap]
+15.1 +14.7 97 +13 +13 997.1 990.6
15 17.08 СВ 6-14
{14}
10 км слаб. ливневой дождь 10/10 600 м
[Cb cap]
+14.6 +14.1 97 +13 +13 997.9 991.5
18 17.08 СВ 6-12
{14}
4000 м слаб. ливневой дождь 10/10 600 м
[Cb cap]
+14.3 +13.8 97 +12 +12 998.8 992.4
21 17.08 СВ 5-11
{13}
4000 м слаб. ливневой дождь 10/10 600 м
[Cb cap]
+14.0 +13.5 97 +12 +12 1000.0 993.5 +13.9 17
00 18.08 СВ 4
{11}
10 км в посл. час ливневой дождь 10/10 600 м
[Cb cap]
+14.7 +14.1 96 +13 +13 1001.6 995.1
03 18.08 СВ 4 50 км {ливн. осадки} 10/9 600 м
[Cb cap Ci fib]
+16.0 +15.2 95 +15 +16 1002.3 995.9
06 18.08 СВ 4
{10}
10 км гроза, ливневой дождь 10/8 600 м
[Cb cap Ci fib]
+15.0 +14.6 97 +14 +15 1002.1 995.6
09 18.08 СВ 3 50 км в посл. час ливневой дождь {гроза} 10/8 600 м
[Cb cap Ac trans Ci fib]
+15.7 +15.3 97 +15 +15 1003.1 996.6 +17.8 24
12 18.08 СВ 3 10 км слаб. ливневой дождь {гроза} 10/10 600 м
[Cb cap]
+15.2 +14.8 97 +14 +14 1004.7 998.2
15 18.08 В 2 10 км {ливн. осадки} 10/10 600 м
[Cb cap]
+15.3 +14.8 97 +15 +15 1006.0 999.5
18 18.08 СВ 1 10 км {ливн. осадки} 10/8 600 м
[Cb cap Ci fib]
+14.8 +14.4 97 +15 +15 1007.0 1000.5
21 18.08 СВ 1 10 км 10/8 600 м
[Cb cap Ci fib]
+15.5 +15.2 98 +16 +16 1008.6 1002.1 +14.8 3
00 19.08 З 2 10 км 10/9 600 м
[Cb cap Ci fib]
+18.3 +17.4 94 +19 +20 1010.1 1003.6
03 19.08 З 3 50 км 10/8 600 м
[Cb cap Ac trans Ci fib]
+19.9 +18.0 89 +23 +24 комфорт 1010.7 1004.3
06 19.08 ЮЗ 1 50 км 8/5 600 м
[Cb cap Ac trans Ci fib]
+21.8 +17.2 75 +26 +30 душно 1010.3 1003.9
09 19.08 В 1 50 км 3/3 600 м
[Cb cap Ci fib]
+21.7 +16.7 73 +26 +26 душно 1010.6 1004.2 +23.0
12 19.08 СВ 1 50 км 1/1 600 м
[Sc]
+17.5 +17.1 98 +19 +19 1011.5 1005.0
15 19.08 С 2 50 км 9/9 600 м
[Cb cap]
+17.2 +16.7 97 +18 +18 1011.8 1005.3
18 19.08 СВ 1 50 км 10/10 600 м
[Cb cap]
+16.3 +16.0 98 +17 +17 1011.8 1005.3
21 19.08 СВ 1 50 км в посл. час ливневой дождь 9/9 600 м
[Cb cap]
+16.1 +15.7 97 +17 +17 1012.0 1005.5 +14.8 0.3
00 20.08 СЗ 2 20 км {ливн. осадки} 9/9 600 м
[Cb cap]
+17.8 +16.4 92 +18 +19 1012.2 1005.7
03 20.08 В 2 50 км 8/6 600 м
[Cb cap Ac trans Ci fib]
+20.3 +17.5 84 +24 +28 комфорт 1012.0 1005.6
09 20.08 Ю 1 50 км 10/1 600 м
[Sc Ac trans Ci fib]
+20.6 +15.5 73 +25 +25 комфорт 1010.6 1004.2 +23.1 0.0
12 20.08 штиль 0 50 км 10/5 600 м
[Sc Ac lent Ci fib]
+16.2 +15.7 97 +16 +16 1011.3 1004.8
15 20.08 СВ 1 50 км 10/8 600 м
[Sc Ci fib]
+16.9 +16.5 97 +18 +18 1010.7 1004.2
18 20.08 СВ 2 50 км 10/8 600 м
[Sc Ci fib]
+17.3 +16.2 93 +18 +18 1009.9 1003.4
21 20.08 СВ 2 50 км 9/8 600 м
[Cb cap Ci fib]
+18.0 +17.6 98 +19 +19 1009.8 1003.4 +16.0
03 21.08 В 2 50 км 10/8 600 м
[Cb cap Ci sp]
+21.2 +18.4 84 +25 +28 комфорт 1007.6 1001.2
09 21.08 ЮВ 3 10 км в посл. час ливневой дождь 10/9 600 м
[Cb cap Ci sp]
+19.6 +18.7 95 +22 +22 комфорт 1005.9 999.5 +21.6 4
12 21.08 ЮВ 5
{10}
10 км в посл. час ливневой дождь 10/10 600 м
[Cb cap]
+19.2 +18.1 93 +21 +21 комфорт 1005.7 999.3
15 21.08 ЮВ 4
{10}
10 км {ливн. осадки} 10/10 600 м
[Cb cap]
+18.6 +17.6 94 +19 +19 1005.0 998.6
21 21.08 ЮВ 3 10 км {ливн. осадки} 10/10 600 м
[Cb cap]
+18.0 +17.0 94 +18 +18 1005.7 999.3 +17.9 6
00 22.08 ЮВ 3 20 км {ливн. осадки} 10/10 600 м
[Cb cap]
+18.9 +17.2 90 +20 +20 1006.1 999.7
09 22.08 СВ 5-11
{11}
50 км гроза без осадков {ливн. осадки} 9/8 600 м
[Cb cap Ac trans Ci fib]
+18.1 +17.3 95 +18 +18 1006.9 1000.5 +20.8 8
12 22.08 СВ 4
{13}
10 км слаб. ливневой дождь {гроза} 9/9 600 м
[Cb cap]
+17.1 +16.6 97 +17 +17 1007.8 1001.3
15 22.08 СВ 3
{11}
2000 м ливневой дождь, в посл. час гроза 10/10 600 м
[Cb cap]
+17.0 +16.6 97 +17 +17 1008.0 1001.5
21 22.08 СВ 5
{11}
10 км слаб. ливневой дождь 9/9 600 м
[Cb cap]
+15.9 +15.2 96 +15 +15 1008.7 1002.2 +15.9 21
00 23.08 СВ 5-10
{10}
50 км {ливн. осадки} 9/9 600 м
[Cb cap]
+16.2 +14.7 91 +15 +16 1009.4 1002.9 +15.6

 

Местоположение метеостанции Ленинское (Еврейская автономная область, Россия): широта 47.95 долгота 132.60 высота над уровнем моря 57 м.

В архиве по умолчанию представлена погода в Ленинское за последнюю неделю. Архивные данные за месяц целиком и за предыдущие месяцы, начиная с января 2011 года, Вы можете получить, выбрав интересующий диапазон дат из раскрывающегося списка и нажав кнопку "Ввод!".


*Определитесь, кто Вы:
робот инопланетянин человек

Внимание! Время в таблицах - всемирное. Для получения местного времени необходимо прибавить поправку, которая равна 10 ч.

Смотрите также архив погоды в соседних городах и на ближайших метеорологических станциях:

Погода в Биджане (Еврейская автономная область, Россия) (54 км)
Погода в Биробиджане (Еврейская автономная область, Россия) (90 км)
Погода в Фуцзине (Хэйлунцзян, Китай) (93 км)
Погода в Смидовиче (Еврейская автономная область, Россия) (115 км)
Погода в Хабаровск Центре (Еврейская автономная область, Россия) (123 км)
Погода в Екатерино-Никольском (Еврейская автономная область, Россия) (129 км)
Погода в Лермонтовке (Хабаровский край, Россия) (156 км)
Погода в Вяземском (Хабаровский край, Россия) (164 км)
Погода в Облучье (Еврейская автономная область, Россия) (166 км)
Погода в Урми (Хабаровский край, Россия) (167 км)

Пояснения к столбцам:

Ветер - указаны скорость ветра в м/с - средняя за 10 мин, порывы в срок и между сроками (в фигурных скобках) и направление, откуда дует ветер: С - северный, СВ - северо-восточный, В - восточный, ЮВ - юго-восточный, Ю - южный, ЮЗ - юго-западный, З - западный, СЗ - северо-западный.
Видимость - горизонтальная дальность видимости в метрах или километрах. При видимости от 1 до 10 км при отсутствии осадков обычно наблюдается дымка, при ухудшении видимости до 1 км и менее - туман. В сухую погоду видимость может ухудшаться дымом, пылью или мглою.
Явления - указаны атмосферные явления, наблюдавшиеся в срок или в последний час перед сроком; фигурными скобками обозначены явления, наблюдавшиеся между сроками (за 1-3 часа до срока); квадратными скобками обозначены град или гололедные отложения с указанием их диаметра в мм.
Облачность - указаны через наклонную черту общая и нижняя облачность в баллах и высота нижней границы облаков в метрах; квадратными скобками обозначены формы облаков: Ci - перистые, Cs - перисто-слоистые, Cc - перисто-кучевые, Ac - высококучевые, As - высокослоистые, Sc - слоисто-кучевые, Ns - слоисто-дождевые, Cu - кучевые, Cb - кучево-дождевые. Подробнее классификацию облаков см. в Атласе облаков (PDF).
T - Температура воздуха - температура, измеренная на высоте 2 м над землей.
Td - Температура точки росы - температура, при понижении до которой содержащийся в воздухе водяной пар достигнет насыщения.
f - Относительная влажность воздуха - влажноcть воздуха, измеренная на высоте 2 м над землей.
Te - Эффективная температура - температура, которую ощущает одетый по сезону человек в тени. Характеристика душности погоды. При расчете учитывается влияние влажности воздуха и скорости ветра на теплоощущения человека.
Tes - Эффективная температура на солнце - температура, которую ощущает человек, с поправкой на солнечный нагрев. Характеристика знойности погоды. Зависит от высоты солнца над горизонтом, облачности и скорости ветра. Ночью, в пасмурную погоду, а также при ветре 12 м/с и более поправка равна нулю.
P - Атмосферное давление - приведенное к уровню моря атмосферное давление.
Po - Атмосферное давление - измеренное на уровне метеостанции атмосферное давление.
Tmin - Минимальная температура - минимум температуры воздуха на высоте 2 м над землей.
Tmax - Максимальная температура - максимум температуры воздуха на высоте 2 м над землей.
R - Количество осадков - Количество выпавших осадков за период времени, мм. При наведении курсора мыши на число - период времени, за который выпало указанное количество осадков.
R24 - Количество осадков - Количество выпавших осадков за 24 часа, мм.
S - Снежный покров - Высота снежного покрова, см. При наведении курсора мыши на число - состояние снежного покрова и степень покрытия местности в баллах.